{"data":{"norad_id":82524,"intl_designator":"","name":"UNKNOWN","alt_names":[],"object_type":"UNKNOWN","status":"UNKNOWN","operator":null,"country":null,"launch_date":null,"launch_site_code":null,"launch_vehicle":null,"mission":null,"orbit_class":"UNKNOWN","rcs_meters":null,"size_class":null,"mass_kg":null,"dimensions":null,"purposes":[],"wikipedia_slug":null,"has_3d_model":false,"image_url":null,"decayed_at":null,"tle_current":{"epoch":"2026-09-18T14:50:22.252704Z","epoch_age_seconds":180951,"freshness":"STALE","line1":"1 82524U          26261.61831311  .00001673  00000+0  51934-3 0  9993","line2":"2 82524  73.2822   3.7547 0128057 119.6714 303.1362 14.37391411617225","mean_motion":14.37391411,"eccentricity":0.0128057,"inclination_deg":73.2822,"raan_deg":3.7547,"arg_perigee_deg":119.6714,"mean_anomaly_deg":303.1362,"bstar":0.00051934,"rev_number":61722,"period_min":100.18148076996,"perigee_km":675.63011119951,"apogee_km":858.63040910619,"semimajor_km":7145.2672601529,"source":"CELESTRAK","updated_at":"2026-09-20T09:00:32.436145Z"}}}